• In Slovakia
  • List of Countries
  • For 7 days
  • Water Temperature
  • Satellite Maps
  • Weather Map
  • Weather Widgets
  • user-avatar
    Login

    Hourly Weather Bremen

    Today, 24 May, Thursday

    Time Temperature Precipitation Wind Pressure Humidity
    00:00 +13°C° 0 mm 4 mps 767 mmHg 79%
    01:00 +12°C° 0 mm 4 mps 767 mmHg 81%
    02:00 +11°C° 0 mm 4 mps 767 mmHg 81%
    03:00 +11°C° 0 mm 4 mps 767 mmHg 80%
    04:00 +11°C° 0 mm 4 mps 767 mmHg 80%
    05:00 +12°C° 0 mm 4 mps 767 mmHg 79%
    06:00 +13°C° 0 mm 4 mps 767 mmHg 78%
    07:00 +14°C° 0 mm 5 mps 767 mmHg 77%
    08:00 +16°C° 0 mm 5 mps 767 mmHg 72%
    09:00 +19°C° 0 mm 6 mps 767 mmHg 67%
    10:00 +21°C° 0 mm 6 mps 767 mmHg 61%
    11:00 +22°C° 0 mm 6 mps 766 mmHg 59%
    12:00 +23°C° 0 mm 6 mps 766 mmHg 57%
    13:00 +23°C° 0 mm 6 mps 766 mmHg 55%
    14:00 +23°C° 0 mm 6 mps 766 mmHg 56%
    15:00 +23°C° 0 mm 6 mps 765 mmHg 58%
    16:00 +25°C° 0 mm 5 mps 765 mmHg 59%
    17:00 +23°C° 0 mm 5 mps 765 mmHg 63%
    18:00 +22°C° 0 mm 5 mps 765 mmHg 66%
    19:00 +21°C° 0 mm 4 mps 765 mmHg 70%
    20:00 +20°C° 0 mm 5 mps 765 mmHg 70%
    21:00 +19°C° 0 mm 5 mps 765 mmHg 69%
    22:00 +17°C° 0 mm 5 mps 765 mmHg 69%
    23:00 +16°C° 0 mm 5 mps 765 mmHg 70%

    Tomorrow, 25 May, Friday

    Time Temperature Precipitation Wind Pressure Humidity
    00:00 +16°C° 0 mm 5 mps 765 mmHg 71%
    01:00 +15°C° 0 mm 5 mps 765 mmHg 72%
    02:00 +15°C° 0 mm 5 mps 765 mmHg 74%
    03:00 +14°C° 0 mm 4 mps 765 mmHg 77%
    04:00 +14°C° 0 mm 4 mps 765 mmHg 80%
    05:00 +15°C° 0 mm 5 mps 765 mmHg 80%
    06:00 +15°C° 0 mm 5 mps 765 mmHg 80%
    07:00 +16°C° 0 mm 5 mps 765 mmHg 79%
    08:00 +17°C° 0.2 mm 5 mps 765 mmHg 77%
    09:00 +19°C° 0.2 mm 5 mps 765 mmHg 74%
    10:00 +20°C° 0.2 mm 5 mps 765 mmHg 72%
    11:00 +21°C° 0.4 mm 5 mps 765 mmHg 70%
    12:00 +22°C° 0.4 mm 4 mps 765 mmHg 69%
    13:00 +22°C° 0.4 mm 4 mps 765 mmHg 67%
    14:00 +23°C° 0 mm 4 mps 765 mmHg 66%
    15:00 +25°C° 0 mm 4 mps 765 mmHg 64%
    16:00 +25°C° 0 mm 4 mps 764 mmHg 63%
    17:00 +23°C° 0.1 mm 4 mps 764 mmHg 66%
    18:00 +23°C° 0.1 mm 4 mps 764 mmHg 70%
    19:00 +22°C° 0.1 mm 4 mps 764 mmHg 73%
    20:00 +20°C° 0 mm 4 mps 765 mmHg 75%
    21:00 +19°C° 0 mm 4 mps 765 mmHg 78%
    22:00 +18°C° 0 mm 4 mps 765 mmHg 80%
    23:00 +17°C° 0 mm 4 mps 765 mmHg 81%

    Day after tomorrow, 26 May, Saturday

    Time Temperature Precipitation Wind Pressure Humidity
    00:00 +15°C° 0 mm 4 mps 765 mmHg 83%
    01:00 +15°C° 0 mm 4 mps 765 mmHg 84%
    02:00 +14°C° 0 mm 4 mps 765 mmHg 85%
    03:00 +14°C° 0 mm 4 mps 765 mmHg 86%
    04:00 +13°C° 0 mm 3 mps 765 mmHg 87%
    05:00 +14°C° 0 mm 3 mps 765 mmHg 84%
    06:00 +17°C° 0 mm 4 mps 765 mmHg 81%
    07:00 +18°C° 0 mm 4 mps 766 mmHg 78%
    08:00 +20°C° 0 mm 4 mps 766 mmHg 73%
    09:00 +22°C° 0 mm 4 mps 766 mmHg 68%
    10:00 +23°C° 0 mm 4 mps 766 mmHg 63%
    11:00 +25°C° 0 mm 4 mps 766 mmHg 59%
    12:00 +26°C° 0 mm 4 mps 766 mmHg 55%
    13:00 +27°C° 0 mm 4 mps 766 mmHg 51%
    14:00 +27°C° 0 mm 4 mps 766 mmHg 52%
    15:00 +27°C° 0 mm 4 mps 766 mmHg 53%
    16:00 +27°C° 0 mm 4 mps 766 mmHg 54%
    17:00 +26°C° 0 mm 4 mps 766 mmHg 60%
    18:00 +25°C° 0 mm 4 mps 766 mmHg 66%
    19:00 +22°C° 0 mm 4 mps 766 mmHg 72%
    20:00 +21°C° 0 mm 4 mps 767 mmHg 77%
    21:00 +19°C° 0 mm 4 mps 767 mmHg 82%
    22:00 +17°C° 0 mm 4 mps 768 mmHg 87%
    23:00 +17°C° 0 mm 3 mps 768 mmHg 89%

    27 May, Sunday

    Time Temperature Precipitation Wind Pressure Humidity
    00:00 +16°C° 0 mm 3 mps 768 mmHg 92%
    01:00 +14°C° 0 mm 3 mps 768 mmHg 95%
    02:00 +13°C° 0 mm 3 mps 768 mmHg 95%
    03:00 +13°C° 0 mm 3 mps 767 mmHg 95%
    04:00 +12°C° 0 mm 3 mps 767 mmHg 96%
    05:00 +14°C° 0 mm 3 mps 767 mmHg 92%
    06:00 +16°C° 0 mm 3 mps 767 mmHg 89%
    07:00 +17°C° 0 mm 3 mps 767 mmHg 85%
    08:00 +19°C° 0 mm 3 mps 767 mmHg 79%
    09:00 +21°C° 0 mm 4 mps 767 mmHg 74%
    10:00 +22°C° 0 mm 4 mps 767 mmHg 68%
    11:00 +23°C° 0 mm 4 mps 767 mmHg 66%
    12:00 +25°C° 0 mm 4 mps 766 mmHg 64%
    13:00 +26°C° 0 mm 4 mps 766 mmHg 62%
    14:00 +26°C° 0 mm 4 mps 766 mmHg 63%
    15:00 +25°C° 0 mm 5 mps 765 mmHg 65%
    16:00 +25°C° 0 mm 5 mps 765 mmHg 66%
    17:00 +23°C° 0 mm 4 mps 765 mmHg 70%
    18:00 +22°C° 0 mm 4 mps 765 mmHg 74%
    19:00 +21°C° 0 mm 4 mps 765 mmHg 79%
    20:00 +20°C° 0 mm 4 mps 765 mmHg 84%
    21:00 +18°C° 0 mm 4 mps 765 mmHg 89%
    22:00 +17°C° 0 mm 4 mps 765 mmHg 94%
    23:00 +16°C° 0 mm 3 mps 765 mmHg 95%

    28 May, Monday

    Time Temperature Precipitation Wind Pressure Humidity
    00:00 +14°C° 0 mm 3 mps 765 mmHg 97%
    01:00 +14°C° 0 mm 3 mps 765 mmHg 98%
    02:00 +13°C° 0 mm 3 mps 764 mmHg 98%
    03:00 +13°C° 0 mm 3 mps 764 mmHg 98%
    04:00 +13°C° 0 mm 3 mps 764 mmHg 98%
    05:00 +14°C° 0 mm 3 mps 764 mmHg 96%
    06:00 +16°C° 0 mm 3 mps 764 mmHg 93%
    07:00 +17°C° 0 mm 3 mps 764 mmHg 90%
    08:00 +20°C° 0 mm 3 mps 764 mmHg 83%
    09:00 +22°C° 0 mm 3 mps 764 mmHg 75%
    10:00 +25°C° 0 mm 3 mps 764 mmHg 67%
    11:00 +26°C° 0 mm 3 mps 763 mmHg 63%
    12:00 +27°C° 0 mm 3 mps 763 mmHg 58%
    13:00 +28°C° 0 mm 3 mps 763 mmHg 54%
    14:00 +29°C° 0 mm 3 mps 763 mmHg 54%
    15:00 +29°C° 0 mm 3 mps 762 mmHg 54%
    16:00 +29°C° 0 mm 3 mps 762 mmHg 54%
    17:00 +28°C° 0 mm 3 mps 762 mmHg 60%
    18:00 +27°C° 0 mm 3 mps 762 mmHg 65%
    19:00 +26°C° 0 mm 3 mps 762 mmHg 70%
    20:00 +25°C° 0 mm 3 mps 762 mmHg 74%
    21:00 +22°C° 0 mm 3 mps 762 mmHg 77%
    22:00 +21°C° 0 mm 4 mps 762 mmHg 80%
    23:00 +20°C° 0 mm 3 mps 762 mmHg 83%

    29 May, Tuesday

    Time Temperature Precipitation Wind Pressure Humidity
    00:00 +20°C° 0 mm 3 mps 762 mmHg 86%
    01:00 +19°C° 0 mm 3 mps 762 mmHg 89%
    02:00 +19°C° 0 mm 3 mps 762 mmHg 91%
    03:00 +18°C° 0 mm 3 mps 762 mmHg 92%
    04:00 +18°C° 0 mm 3 mps 762 mmHg 93%
    05:00 +19°C° 0 mm 3 mps 762 mmHg 90%
    06:00 +20°C° 0 mm 4 mps 761 mmHg 86%
    07:00 +21°C° 0 mm 4 mps 761 mmHg 83%
    08:00 +23°C° 0 mm 4 mps 761 mmHg 79%
    09:00 +25°C° 0 mm 4 mps 761 mmHg 75%
    10:00 +27°C° 0 mm 4 mps 761 mmHg 71%
    11:00 +28°C° 0.1 mm 4 mps 761 mmHg 68%
    12:00 +29°C° 0.1 mm 4 mps 760 mmHg 64%
    13:00 +30°C° 0.1 mm 4 mps 760 mmHg 61%
    14:00 +30°C° 0.5 mm 3 mps 760 mmHg 62%
    15:00 +30°C° 0.5 mm 3 mps 760 mmHg 62%
    16:00 +30°C° 0.5 mm 3 mps 759 mmHg 63%
    17:00 +29°C° 0.2 mm 2 mps 759 mmHg 68%
    18:00 +28°C° 0.2 mm 2 mps 759 mmHg 74%
    19:00 +27°C° 0.2 mm 2 mps 759 mmHg 79%
    20:00 +25°C° 0.2 mm 2 mps 759 mmHg 82%
    21:00 +24°C° 0.2 mm 1 mps 759 mmHg 85%
    22:00 +23°C° 0.2 mm 1 mps 759 mmHg 88%
    23:00 +22°C° 0.3 mm 1 mps 759 mmHg 89%
    Show more